TimeEDT,TemperatureF,Dew PointF,Humidity,Sea Level PressureIn,VisibilityMPH,Wind Direction,Wind SpeedMPH,Gust SpeedMPH,PrecipitationIn,Events,Conditions,WindDirDegrees,DateUTC
12:53 AM,73.9,64.0,71,30.06,10.0,South,4.6,-,N/A,,Clear,180,2013-06-24 04:53:00
1:53 AM,72.0,64.0,76,30.07,10.0,SW,9.2,-,N/A,,Clear,220,2013-06-24 05:53:00
2:53 AM,71.1,63.0,75,30.07,10.0,SW,6.9,-,N/A,,Clear,220,2013-06-24 06:53:00
3:53 AM,69.1,63.0,81,30.08,10.0,SW,6.9,-,N/A,,Clear,220,2013-06-24 07:53:00
4:53 AM,66.9,62.1,84,30.09,9.0,South,3.5,-,N/A,,Clear,190,2013-06-24 08:53:00
5:53 AM,66.0,62.1,87,30.09,7.0,Calm,Calm,-,N/A,,Clear,0,2013-06-24 09:53:00
6:53 AM,68.0,63.0,84,30.10,7.0,South,3.5,-,N/A,,Clear,190,2013-06-24 10:53:00
7:53 AM,72.0,64.0,76,30.11,8.0,SSW,6.9,-,N/A,,Clear,210,2013-06-24 11:53:00
8:53 AM,75.9,64.9,69,30.11,9.0,SSW,5.8,-,N/A,,Clear,210,2013-06-24 12:53:00
9:53 AM,81.0,66.0,60,30.11,10.0,SW,10.4,-,N/A,,Clear,230,2013-06-24 13:53:00
10:53 AM,82.9,66.0,56,30.11,10.0,WSW,9.2,-,N/A,,Clear,250,2013-06-24 14:53:00
11:53 AM,84.9,66.0,53,30.11,10.0,West,13.8,-,N/A,,Scattered Clouds,260,2013-06-24 15:53:00
12:53 PM,87.1,64.0,46,30.10,10.0,WSW,12.7,21.9,N/A,,Partly Cloudy,250,2013-06-24 16:53:00
1:53 PM,88.0,63.0,43,30.07,10.0,SW,12.7,20.7,N/A,,Clear,230,2013-06-24 17:53:00
2:53 PM,88.0,63.0,43,30.04,10.0,SW,15.0,-,N/A,,Partly Cloudy,220,2013-06-24 18:53:00
3:53 PM,84.9,64.9,51,30.03,10.0,West,9.2,18.4,N/A,,Scattered Clouds,260,2013-06-24 19:53:00
4:53 PM,84.0,66.9,56,30.01,10.0,SW,8.1,-,N/A,,Clear,230,2013-06-24 20:53:00
5:53 PM,86.0,66.0,51,29.99,10.0,SSW,15.0,-,N/A,,Clear,210,2013-06-24 21:53:00
6:53 PM,86.0,66.0,51,29.97,10.0,SW,9.2,-,N/A,,Partly Cloudy,220,2013-06-24 22:53:00
7:53 PM,84.9,64.0,49,29.98,10.0,WSW,8.1,-,N/A,,Mostly Cloudy,240,2013-06-24 23:53:00
8:53 PM,81.0,64.9,58,29.98,10.0,SSW,5.8,-,N/A,,Clear,200,2013-06-25 00:53:00
9:53 PM,79.0,66.9,66,29.98,10.0,SSW,6.9,-,N/A,,Clear,210,2013-06-25 01:53:00
10:53 PM,78.1,66.0,66,29.99,10.0,SSW,6.9,-,N/A,,Clear,210,2013-06-25 02:53:00
11:53 PM,78.1,66.0,66,30.00,10.0,SW,8.1,-,N/A,,Clear,230,2013-06-25 03:53:00